Location: Colorado Springs
(38.8340°N, 104.8210°W)
Time: 20:37:59
(UTC-06:00)

OTV 5 (USA 277) - Pass Details

Date: 08 October 2017
Orbit: 404 x 417 km, 43.0° (Epoch: 07 September)

Event Time Altitude Azimuth Distance (km) Brightness Sun altitude
Rises 20:56:02 0° 250° (WSW) 2,347 ? -28.9°
Reaches altitude 10° 20:58:09 10° 252° (WSW) 1,485 ? -29.3°
Enters shadow 20:58:29 12° 252° (WSW) 1,348 ? -29.4°
